Regional Weather Roundup
Issued by NWS State College, PA

Home | Current Version | Previous Version | Graphics & Text | Print | Product List | Glossary Off
Versions: 1 2 3 4 5 6 7 8 9 10 11 12 13 14 15 16 17 18 19 20 21 22 23 24 25 26 27 28 29 30 31 32 33 34 35 36 37 38 39 40 41 42 43 44 45 46 47 48 49 50

000
ASUS41 KCTP 210310
RWRCTP

REGIONAL WEATHER ROUNDUP
NATIONAL WEATHER SERVICE STATE COLLEGE PA
1100 PM EDT SUN AUG 20 2017

Note: "fair" indicates few or no clouds below 12,000 feet with no
significant weather and/or obstructions to visibility.

* = STATION THAT DOES NOT REPORT PRECIPITATION /E.G. RAIN...SNOW...ETC/
    THUNDER OR FOG.

PAZ002>004-007>009-013>016-020>023-029>032-210400-
WESTERN PENNSYLVANIA

CITY           SKY/WX    TMP DP  RH WIND       PRES   REMARKS
ERIE           CLEAR     71  58  63 S9        30.12F
MEADVILLE      CLOUDY    72  57  59 VRB3      30.17S
FRANKLIN*      CLOUDY    68  55  64 SE7       30.19F
NEW CASTLE     FAIR      65  63  93 CALM      30.17S
BEAVER COUNTY  NOT AVBL
BUTLER*        CLOUDY    65  62  90 CALM      30.19S
PITTSBURGH INT CLOUDY    71  66  84 S3        30.17S
PITTSBURGH     CLOUDY    72  61  68 SE3       30.17S
INDIANA*       CLEAR     63  61  94 E3        30.23S
LATROBE        CLOUDY    64  64 100 CALM      30.19S
WASHINGTON CO* CLOUDY    64  63  94 CALM      30.18S
$$

PAZ004>006-010>012-017>019-024>028-033>037-041-042-045-046-049>053-210400-
CENTRAL PENNSYLVANIA

CITY           SKY/WX    TMP DP  RH WIND       PRES   REMARKS
BRADFORD       CLEAR     58  58 100 SE3       30.22R
DUBOIS         CLEAR     64  55  72 CALM      30.21R
CLEARFIELD     CLEAR     61  59  93 N7        30.22R
JOHNSTOWN      CLEAR     67  61  81 S6        30.24S
ALTOONA        CLEAR     63  63 100 CALM      30.23R
STATE COLLEGE  CLEAR     69  60  73 CALM      30.21S
WILLIAMSPORT   CLEAR     68  65  90 NW3       30.17R
SELINSGROVE    CLEAR     64  64 100 CALM      30.19R
FT INDIANTOWN  CLEAR     64  64 100 CALM      30.18R
CAPITAL CITY   CLEAR     69  62  78 W3        30.18R
HARRISBURG     PTCLDY    72  66  81 E3        30.17R
YORK           CLEAR     65  64  97 CALM      30.19R
$$

PAZ038>040-043-044-047-048-054-055-060>062-067>071-210400-
EASTERN PENNSYLVANIA

CITY           SKY/WX    TMP DP  RH WIND       PRES   REMARKS
SCRANTON       CLEAR     66  63  90 SE3       30.19R
MOUNT POCONO     N/A     58  58 100 W3        30.23R
ALLENTOWN      CLEAR     70  63  78 W5        30.18R
QUAKERTOWN*    CLEAR     66  64  94 CALM      30.20R
READING        CLEAR     71  67  87 CALM      30.17R
LANCASTER      CLEAR     69  65  86 CALM      30.18R
COATESVILLE    CLEAR     68  64  88 W3        30.21R
POTTSTOWN      CLEAR     66  65  96 CALM      30.20R
BLUE BELL      CLEAR     63  63 100 CALM      30.20R
DOYLESTOWN     CLEAR     66  64  93 CALM      30.18R
WILLOW GROVE   NOT AVBL
NORTH PHILA    CLEAR     74  63  68 W3        30.19R
PHILADELPHIA   PTCLDY    76  65  68 W6        30.18R
$$




USA.gov is the U.S. government's official web portal to all federal, state and local government web resources and services.